If you wish to contribute or participate in the discussions about articles you are invited to join SKYbrary as a registered user

 Actions

Al Udeid Air Base

From SKYbrary Wiki

OTBH
Airport
ICAO: OTBH – IATA: IUD
Summary
Name Al Udeid Air Base
Region Middle East
Territory Qatar QA.gif
Location Al-Udeid, Ad Dawhah
Serving Al-Udeid Air Base
Elevation 39.624 m
130 ft39.624 m
Coordinates 25° 7' 0.82" N, 51° 18' 54.74" E
Runways
Designator Length Width Surface ROPS
16/34 3750 m12,303.15 ft
45 m147.638 ft
ASP yes/yes


METAR
Observation OTBH 262156Z 33003KT 8000 BR CLR 24/20 A2994 RMK AO2A SLPNO T02360201
Station Al Udeid
Date/Time 26 October 2020 21:56:00
Wind direction 330°
Wind speed 03 kts
Lowest cloud amount n/a
Temperature 23.6°C
Dew point 20.1°C
Humidity 80%
QNH hPa
Weather condition n/a

Al Udeid Air Base is a military base southwest of Doha, Qatar, also known as Abu Nakhlah Airport. It houses Qatari Air Force, U.S. Air Force, and Royal Air Force personnel and assets.

Climatology

Hot Desert Climate (Köppen climate classification BWh)

Maps

Terrain

Loading map...

Airport Layout

Loading map...


Accidents & Serious Incidents at or in vicinity of OTBH

None on SKYbrary